SL-16 DEB, 22442

Orbit data source: Space-Track

SL-16 DEB, 22442 is space debris in LEO originally from a launch on Fri, 25 Dec 1992 UTC launched from the Tyuratam Missile And Space Complex (TTMTR). Debris objects in space refer to the collection of defunct objects orbiting the Earth. Examples of debris include non-operational satellites, rocket bodies, and fragments generated from explosions, collisions, or faulty payload assembly.

Loading next visibility...
Identifier
22442, 1992-093EK
Orbit
LEO
Country
Flag of CISCIS
Related business
Manufacturer
Unknown
Mission
Spacecraft
Bus & Motor
Unknown
Mass
Unknown
Launch date (UTC)
1992-12-25 (33 years ago)
Launch vehicle
Unknown
Launch site
Tyuratam Missile And Space Complex (TTMTR)
Object type
Payload
Rocket body
Debris
Shape & HBR
Unknown shape, 0.1 m
Radar Cross Section
Small (<0.1 m²)

Expand to show TLE details & history
Last TLE update: 8 hours ago

TLE from 8 hours ago
0 SL-16 DEB
1 22442U 92093EK  25304.76431411  .00011186  00000-0  30151-2 0  9997
2 22442  71.0991 271.2518 0090882  54.1487 306.8050 14.45616928686171
Epoch: 2025-10-31T18:20Z
TLE epoch observation values (Epoch: 2025-10-31T18:20:36.739Z)
Latitude
-0.00002°
Longitude
-44.20535°
Altitude
704.06 km
Speed
7.524 km/s
True Right ascension
18h 05m 00s
True Declination
0° 00' 00"
Sunlit
Object was in daylight at epoch
Visualization orbit readout
Latitude
Unknown
Longitude
Unknown
Altitude
Unknown
Speed
Unknown
Apparent Right ascension
Unknown
Apparent Declination
Unknown
Sunlit
N/A
Visualization observer readout
Local Sidereal Time
21:39:45
Azimuth
Unknown
Elevation
Unknown
Doppler factor
Unknown
Orbital elements
Apogee altitude
802.557 km
Perigee altitude
673.213 km
Semi-major axis
7,116.022 km
Eccentricity
0.00909
Inclination
71.0991°
RAAN
271.2518°
Arg. of periapsis
54.1487°
True anomaly
305.96547°
Mean anomaly
306.805°
Eccentric anomaly
306.3858°
Mean motion
3.61566 °/min
Orbital period
99.57 mins
BSTAR
0.0030151
Loading maneuver chart data...
Computing Atmospheric mass density...
Loading historical data...
Loading historical data...
Loading historical data...
Loading historical data...
Loading historical data...
Loading historical data...
Loading historical data...

Documentation

Showing up to 5 results
|